Vorticity
10 10 13 22 30 20 10 16 23 32 22 9 9 7 4 4 9 10 7 11 10 9 11 9 15 16 11 11 10 13 15 13 12 5 5 5 3 6 4 7 9 3 3 4 4 5 5 6 5 5 4 4 4 3 3 4 4 4 4 5 4 4 3 2 4 4 2 2 1 3 5 3 4 3 3 3 3 3 3 3 3 3 3 3 3 3 3 3 3 3 3 3 3 3 3 3 4
7 6 7 11 20 18 11 12 14 21 22 21 30 25 18 18 17 13 6 14 24 21 24 18 18 21 14 15 14 11 8 7 7 5 7 6 8 10 5 5 5 4 3 3 4 3 3 3 2 2 2 3 3 4 4 3 4 3 3 4 3 3 3 3 4 4 4 5 4 4 3 3 4 3 3 3 3 3 3 3 3 3 3 3 3 3 3 3 3 3 3 3 3 3 3 3 3
10 8 7 6 8 8 7 8 1 0 7 15 31 31 30 35 25 19 8 10 18 12 13 10 11 14 10 11 8 7 5 5 5 6 9 7 7 6 5 4 3 5 3 2 4 2 1 -1 -1 -0 0 2 2 3 3 4 4 3 3 3 4 3 4 4 3 2 2 3 3 3 3 4 3 3 3 3 3 3 3 4 4 4 3 4 3 3 3 3 3 3 3 3 3 3 4 3 3
14 11 9 8 8 9 11 14 10 5 5 7 15 15 15 19 19 28 20 5 1 -1 5 9 11 11 8 9 7 8 7 6 5 5 6 4 5 4 6 6 5 6 4 4 3 1 -1 -1 3 5 6 6 5 4 2 3 3 3 3 2 2 2 1 2 2 2 2 3 3 4 4 4 4 4 3 3 4 3 3 3 3 3 3 4 3 3 3 3 3 3 3 3 3 3 3 3 3
16 15 12 11 10 8 9 10 9 7 6 6 8 10 9 8 11 18 15 4 1 7 13 11 8 7 6 8 8 7 6 8 6 4 4 4 6 4 6 7 6 5 4 4 2 1 -0 3 8 10 11 10 9 7 5 4 4 3 3 3 4 4 3 3 4 4 4 5 4 4 4 4 4 4 4 4 3 3 3 3 3 3 3 3 3 4 3 4 4 4 4 4 4 3 4 3 3
13 14 13 12 10 7 6 6 7 8 8 8 9 12 11 8 7 5 4 3 5 9 12 8 7 7 7 6 7 6 5 7 6 6 7 7 7 7 8 7 6 6 6 6 5 5 5 8 10 9 8 7 8 6 6 5 5 6 5 6 6 6 6 6 5 5 5 5 5 5 5 4 4 4 4 3 3 3 3 3 4 3 4 3 4 4 4 4 4 4 4 4 4 4 3 3 4
10 11 12 11 11 10 9 9 9 9 9 9 9 10 9 6 5 5 6 7 8 10 10 8 8 8 7 5 5 5 4 4 5 8 8 7 6 8 9 7 7 7 7 7 8 9 10 9 7 7 5 5 6 5 6 6 6 6 6 6 6 6 6 6 5 5 5 5 5 5 4 4 4 4 4 4 4 4 4 4 4 3 3 3 4 4 4 4 4 4 4 4 4 4 4 4 4
8 9 10 10 12 14 12 11 10 9 10 9 8 8 7 6 7 8 10 11 10 9 8 5 4 5 3 3 4 5 5 5 6 7 8 6 4 7 8 6 6 6 5 7 7 8 8 6 5 6 6 6 5 6 6 6 7 7 6 6 5 5 5 5 5 5 5 5 5 5 6 6 6 6 6 6 6 6 6 5 5 5 4 4 4 4 4 4 4 4 4 5 6 6 5 5 5
7 7 9 9 10 12 11 11 11 10 10 10 10 10 10 10 11 12 12 12 10 8 4 -1 1 2 3 6 7 8 10 13 13 11 12 11 8 8 8 8 6 6 5 5 7 7 6 5 5 5 5 4 4 5 5 5 6 5 5 4 4 4 4 4 4 4 4 6 6 7 8 8 8 8 8 8 7 7 7 7 7 7 6 6 5 5 5 5 6 6 6 6 7 8 6 6 7
4 2 3 5 6 8 9 9 9 9 9 9 10 12 13 14 13 13 12 11 12 10 4 1 3 4 7 10 7 7 10 13 14 11 10 10 10 9 9 11 11 11 8 8 8 7 8 8 6 5 5 4 3 4 4 4 4 5 4 3 4 4 4 4 4 5 6 7 7 8 9 9 9 9 9 9 8 8 8 8 8 8 7 6 6 7 7 5 5 4 5 5 4 4 5 6 6
4 4 3 4 5 7 8 7 7 7 8 9 10 11 11 11 10 11 11 11 11 10 8 7 7 8 9 9 7 8 8 8 8 8 8 9 9 8 8 10 15 20 20 17 13 10 13 14 12 9 7 6 5 4 3 3 3 5 4 4 4 4 5 6 8 9 9 7 7 8 8 8 9 10 9 7 9 12 13 11 9 10 11 8 6 6 4 4 6 7 7 7 7 5 5 5 3
5 6 6 6 6 7 8 7 8 8 8 8 9 10 8 8 8 9 10 10 11 10 10 10 9 10 9 8 10 10 9 8 7 8 8 8 8 7 7 6 9 18 20 17 13 11 14 18 20 16 11 10 7 5 5 5 6 6 6 6 7 8 9 9 11 10 9 9 8 9 9 7 8 12 10 7 8 11 12 11 11 13 13 10 6 5 6 8 11 10 9 9 10 10 9 10 9
5 5 5 4 3 4 6 8 8 9 9 9 9 9 9 9 9 9 10 10 10 10 10 10 9 9 9 9 10 10 9 7 7 6 6 6 7 7 7 7 6 10 12 12 11 9 9 13 18 18 15 13 9 8 8 7 8 7 8 8 9 10 9 9 10 10 9 9 8 9 9 8 9 13 12 11 11 11 11 13 14 16 15 11 7 7 9 8 8 6 6 6 6 8 7 8 9
5 6 5 4 4 2 2 5 6 7 7 7 7 7 7 7 7 8 8 9 9 9 9 9 8 8 9 9 8 8 8 7 7 6 6 6 7 7 6 7 7 7 9 10 10 10 8 7 10 12 12 12 11 11 10 10 10 9 9 8 9 9 8 9 9 8 9 10 11 10 9 9 12 12 11 11 12 12 14 16 15 14 14 12 10 12 14 12 9 7 8 10 9 9 7 7 7
6 6 6 6 7 5 3 3 3 4 5 6 5 4 4 5 5 6 7 8 8 7 8 8 8 8 8 8 7 7 7 7 7 6 7 7 7 7 7 7 6 7 7 8 9 8 8 7 6 6 8 10 10 11 10 9 9 7 7 7 7 6 6 9 9 8 10 12 12 10 11 11 9 8 10 10 11 13 14 15 10 7 8 8 10 12 12 10 7 6 6 8 8 9 9 11 10
5 4 4 5 6 6 5 4 2 2 4 5 6 6 5 4 3 4 5 5 6 6 6 6 7 8 8 8 7 6 7 6 6 6 5 6 6 6 7 7 7 7 7 8 8 7 8 8 8 7 8 8 7 8 8 7 7 5 5 5 6 6 6 9 12 12 11 9 7 9 13 10 6 7 9 7 6 8 9 10 6 5 5 5 6 7 7 7 6 5 5 5 6 7 8 10 10
5 3 4 3 4 5 5 5 4 3 3 4 5 7 6 5 3 3 4 3 5 6 7 6 6 7 7 6 6 6 7 6 6 6 6 6 6 6 6 6 6 6 7 7 7 7 9 10 10 8 9 10 6 5 6 6 7 7 7 6 8 10 10 9 12 13 9 8 9 9 8 8 8 4 2 2 2 3 5 6 5 5 5 5 6 7 7 6 8 7 7 7 8 7 6 7 7
6 6 5 4 4 4 4 5 6 4 3 3 4 5 5 5 4 3 4 4 4 5 7 8 7 6 6 7 6 6 7 7 7 6 6 7 5 6 6 5 6 6 6 6 6 7 7 9 9 7 10 9 5 6 8 7 8 7 7 7 8 11 10 8 11 9 6 10 11 7 4 6 7 1 -1 3 5 5 6 6 6 6 6 7 7 8 7 5 7 6 6 6 6 5 4 5 5
8 8 5 3 5 5 5 6 5 6 5 4 4 5 5 5 5 6 5 5 5 5 5 7 8 6 6 6 5 5 6 6 5 5 5 5 5 6 6 6 6 6 7 6 6 7 7 8 8 7 9 6 5 8 7 7 9 5 5 8 9 9 8 9 12 7 7 11 5 2 4 4 3 3 5 7 7 7 6 6 6 7 6 7 6 6 6 5 6 5 6 5 5 6 4 6 5
9 10 5 4 5 5 7 7 5 6 5 6 7 8 8 7 7 7 7 6 6 6 4 5 7 7 7 6 5 4 5 5 4 4 4 5 5 5 5 4 4 4 5 6 6 7 9 12 9 7 7 5 8 10 6 7 8 5 8 11 6 6 7 7 8 4 8 10 2 3 6 4 3 5 8 8 8 8 7 8 7 7 7 7 7 7 7 6 6 5 6 6 5 6 5 6 7
8 9 7 6 4 4 5 6 6 6 5 5 5 6 6 7 8 7 7 7 6 5 4 4 4 5 7 7 5 3 3 5 5 5 5 5 4 3 3 2 3 3 2 4 5 8 12 13 10 7 9 9 10 10 7 9 8 5 10 9 2 5 8 7 7 5 7 5 1 6 6 3 4 6 8 7 7 7 6 8 7 8 8 8 9 8 9 9 9 9 8 8 6 5 6 5 5
5 6 8 7 6 6 5 4 6 5 5 4 3 3 3 6 8 9 7 7 6 5 3 3 3 4 6 7 6 3 3 4 4 5 5 5 2 0 -1 -1 2 4 3 1 2 8 12 12 10 10 12 11 8 6 6 10 8 6 9 7 4 7 9 8 9 6 5 5 4 7 5 3 5 6 7 6 6 6 6 6 6 6 6 6 7 7 8 8 9 10 10 10 10 8 8 7 5
4 5 7 7 7 8 8 7 6 6 8 8 7 6 6 7 9 10 10 8 7 5 3 2 2 3 4 5 4 3 3 4 4 4 5 4 2 0 -1 -3 1 5 6 1 -0 6 12 12 12 13 13 10 8 5 5 7 7 7 8 5 6 9 9 9 7 4 5 7 7 6 4 4 5 6 6 6 6 5 5 5 5 5 5 5 5 6 6 6 6 6 8 7 8 10 9 9 9
3 4 4 5 7 8 9 9 7 7 7 6 6 5 5 6 7 8 10 11 8 7 6 4 2 1 1 2 3 3 2 2 3 3 4 4 2 2 1 -0 3 8 7 3 2 7 11 11 12 14 13 12 11 7 7 10 10 10 9 5 6 9 7 7 5 3 5 7 7 6 6 7 7 7 7 6 6 5 6 5 5 5 5 6 6 7 6 6 7 5 6 7 6 7 7 7 8
3 3 3 4 5 6 7 6 5 5 5 5 4 4 4 5 5 8 10 11 9 8 9 9 6 3 1 1 2 2 2 2 1 1 1 2 2 2 2 1 3 9 8 3 5 9 11 10 10 13 13 14 15 12 12 14 16 17 15 12 9 8 5 6 5 4 7 9 8 8 9 10 9 9 8 8 8 7 8 8 9 9 9 9 8 8 8 8 8 8 7 7 7 7 7 8 7
5 2 2 2 2 3 2 0 0 2 3 3 4 4 4 4 5 7 12 13 9 7 9 11 11 8 4 3 3 3 3 4 4 3 2 2 2 2 3 2 2 8 7 3 7 9 8 7 7 11 11 10 10 9 10 12 16 17 16 14 10 8 7 9 10 10 10 8 7 9 9 9 9 9 9 10 10 10 11 11 12 13 13 13 12 12 11 11 10 10 10 8 9 8 7 8 8
4 3 4 3 2 1 -0 -0 -0 1 2 3 4 4 3 3 5 6 10 13 9 5 6 9 11 10 8 5 3 3 4 5 6 6 5 4 3 3 5 5 5 8 7 4 8 10 7 6 6 8 9 6 6 8 10 11 14 13 11 10 9 9 10 11 10 8 6 5 8 10 10 11 11 10 10 10 10 10 11 12 12 12 13 12 12 13 11 12 11 11 11 11 11 10 10 10 10
4 4 3 2 2 2 1 1 1 1 1 1 2 3 3 3 4 4 6 8 7 6 6 7 7 7 8 6 4 3 3 4 5 5 5 5 5 6 9 10 9 9 7 5 6 10 11 8 6 6 6 5 7 9 10 12 14 14 13 12 12 10 10 11 8 6 8 11 13 13 13 12 11 10 9 9 9 10 10 10 10 9 9 9 9 10 10 9 9 10 10 10 11 10 10 9 9
4 1 0 1 0 1 1 1 2 2 -0 -1 -1 1 1 1 3 3 4 5 4 5 6 8 8 6 5 6 5 4 4 5 5 5 4 5 7 10 13 16 14 7 7 8 4 8 12 10 9 7 6 5 6 7 8 11 13 15 14 12 12 10 11 12 11 12 13 13 12 11 11 9 9 8 8 9 8 8 8 7 7 7 7 8 7 7 7 7 7 8 8 8 8 7 7 7 7
5 1 3 3 1 1 2 1 1 3 3 -1 -2 -1 -0 0 3 3 3 4 4 5 5 6 9 9 5 4 5 5 5 7 7 8 7 8 10 11 14 16 12 5 5 8 4 3 6 7 9 9 8 7 5 6 6 7 10 12 10 7 7 8 10 12 13 15 13 10 9 7 7 7 6 5 5 6 5 5 6 6 6 7 7 7 7 7 7 7 7 7 8 8 7 7 8 7 7
2 -2 6 5 2 3 3 4 3 4 4 1 -1 4 6 3 3 3 2 3 4 6 6 5 7 10 7 3 5 5 6 8 9 11 11 13 12 10 14 13 9 5 4 6 5 4 6 7 7 5 6 6 6 5 5 5 8 10 9 6 5 6 6 8 13 14 10 7 7 6 6 5 2 1 3 4 5 6 5 6 6 6 7 6 6 7 7 7 9 11 12 13 13 13 13 13 14
-3 -1 7 2 1 5 5 6 5 5 6 5 2 2 3 3 3 4 3 5 5 4 7 9 8 8 7 5 5 6 6 7 8 10 12 13 13 12 13 10 7 6 4 4 5 5 6 9 7 5 4 4 5 5 5 6 6 7 8 8 7 7 5 7 11 11 9 7 6 7 5 2 1 2 5 6 6 6 5 6 6 7 7 7 9 9 12 13 14 15 14 14 13 13 12 11 12
-4 3 3 -1 3 4 5 8 6 7 10 9 5 -1 -1 1 1 2 2 5 6 4 6 10 12 10 9 7 6 5 5 5 7 8 11 12 12 11 9 7 6 5 5 4 4 4 4 7 7 7 6 4 3 3 4 6 8 7 7 8 9 9 7 7 9 9 10 9 8 8 6 5 6 6 7 7 7 7 8 8 8 11 12 14 16 16 16 14 12 10 8 8 7 7 7 7 7
0 6 0 -2 4 1 2 8 6 6 9 9 5 2 3 1 -2 -1 -1 1 4 6 5 6 12 15 13 11 7 6 4 5 6 6 8 9 7 8 5 4 4 2 4 3 3 5 5 6 7 8 8 6 6 5 4 5 8 9 7 9 9 9 9 7 8 9 9 10 9 10 9 9 8 8 8 7 8 8 8 11 14 18 19 18 16 13 10 7 6 5 5 6 6 6 7 7 8
4 4 2 -0 4 5 2 5 6 4 7 6 3 3 5 5 2 -0 -2 -1 2 5 7 5 8 14 16 15 9 5 4 4 5 4 5 6 4 6 4 2 4 2 3 3 3 4 4 6 8 8 8 6 8 9 7 5 7 9 8 6 6 9 11 9 9 9 9 10 10 9 8 8 8 7 8 7 8 8 10 15 18 18 15 11 8 6 6 5 5 6 6 7 7 8 7 7 8
9 -0 4 1 1 6 1 2 6 5 6 3 2 3 1 3 4 3 -1 -1 3 3 5 5 4 10 15 17 13 7 5 4 5 4 4 6 4 5 5 3 3 3 3 3 3 3 4 7 7 8 8 6 7 9 7 6 7 9 9 6 3 7 10 9 10 10 10 11 9 8 7 7 8 8 8 8 8 11 15 17 15 11 7 5 5 6 6 6 6 6 7 7 7 8 7 7 7
9 2 5 1 -0 5 0 1 5 6 7 3 5 7 2 -0 2 8 5 0 6 4 4 6 1 6 12 14 15 10 7 4 4 5 4 7 7 4 4 5 5 5 5 4 4 4 4 8 7 1 3 7 8 6 5 6 7 9 11 9 5 7 9 8 9 9 9 10 7 7 8 8 8 9 9 10 13 16 17 13 8 6 4 5 5 5 5 5 6 6 7 7 7 7 7 8 7
9 9 7 3 3 6 2 2 4 5 6 2 2 5 4 1 0 10 11 3 8 6 3 6 -3 -1 7 9 14 13 10 6 2 4 6 8 8 4 3 5 6 7 6 4 3 3 4 8 8 3 4 9 6 3 2 3 5 8 9 9 8 6 8 9 8 8 8 7 7 7 8 9 8 9 11 13 17 16 12 8 5 5 5 6 6 5 6 6 7 7 8 9 9 8 8 8 7
9 9 10 10 5 6 4 3 5 3 5 3 -2 2 6 3 2 9 9 4 8 6 3 8 -2 -7 -1 2 8 12 12 11 5 1 4 7 8 6 3 3 6 7 7 6 3 2 4 4 5 6 8 10 7 5 4 3 4 6 6 11 10 2 5 10 8 7 8 6 7 8 8 8 9 10 14 17 15 11 7 5 4 6 7 7 7 7 8 8 8 8 9 10 10 10 10 9 8
9 9 13 12 3 6 3 1 9 5 4 4 -1 6 7 5 11 12 7 6 9 4 -0 6 6 -0 -1 -2 3 8 10 15 13 4 2 5 6 6 4 2 3 5 7 9 5 1 2 3 2 2 4 6 9 11 11 10 10 6 4 9 8 -0 4 11 8 7 9 8 8 8 8 8 9 12 16 17 11 6 5 4 6 8 7 7 7 7 8 7 7 7 8 8 9 10 10 9 8
10 10 14 14 7 6 -3 -8 7 4 -1 4 1 4 5 8 21 18 5 6 8 1 -6 0 8 6 4 1 0 4 5 11 16 12 8 6 6 5 4 3 2 3 7 10 6 2 4 7 5 4 3 -1 3 12 16 14 13 12 9 9 7 2 4 9 9 8 8 8 9 8 9 9 9 14 17 14 8 5 5 7 9 8 6 6 6 6 6 6 7 7 7 7 7 8 7 8 8
10 9 12 17 13 9 -1 -8 4 3 -0 12 9 -0 2 7 16 13 4 5 7 -4 -11 -2 3 4 9 5 0 3 2 4 10 14 13 9 7 6 3 4 2 2 6 7 5 3 4 8 8 8 5 4 11 16 14 10 10 16 14 9 9 5 5 10 9 8 9 9 9 8 9 10 12 16 16 11 7 5 7 7 8 6 5 6 5 5 6 6 8 8 9 9 8 8 7 8 8
7 8 10 14 13 11 6 -3 5 3 -8 3 10 1 1 4 8 13 10 8 6 -4 -5 3 1 1 10 8 2 3 2 3 5 8 12 10 9 8 5 6 5 3 3 3 3 1 4 9 10 14 11 10 20 16 8 7 6 12 12 9 11 6 6 12 10 8 9 9 9 9 9 10 14 18 14 9 7 6 7 7 7 6 6 7 6 6 7 7 9 10 11 10 8 8 7 8 9
4 8 12 12 8 9 9 3 6 1 -11 -3 5 2 2 2 7 13 9 6 8 7 5 4 1 2 11 10 5 5 4 3 4 6 8 9 9 9 8 8 7 5 2 4 4 1 6 6 6 28 27 6 9 12 9 11 6 6 8 7 10 7 6 12 10 9 9 8 9 9 9 11 14 17 13 8 7 7 7 7 7 7 6 7 6 6 7 8 9 10 9 9 7 7 7 7 8
3 7 13 9 4 7 9 9 5 -5 -3 8 5 1 3 3 5 7 8 10 11 13 7 1 4 5 7 10 6 5 7 4 4 6 6 8 11 11 11 10 6 5 5 6 6 3 8 4 1 25 28 1 1 9 10 16 13 7 6 6 9 8 7 10 9 9 9 8 9 9 9 11 13 15 12 8 7 7 7 6 6 7 6 6 6 6 7 8 8 9 8 8 7 6 6 6 6
4 5 8 7 7 7 5 11 9 -7 -4 10 3 -3 1 4 6 4 6 7 4 10 8 1 7 6 1 5 2 1 8 8 5 6 7 8 10 11 12 10 5 7 8 7 7 5 8 7 2 12 15 4 2 5 11 20 16 7 4 5 8 8 9 10 8 9 8 7 9 9 9 10 12 14 11 9 8 6 6 6 6 7 6 5 6 6 7 8 8 8 8 8 7 6 6 6 5
5 4 6 10 8 7 6 8 11 2 -1 6 6 3 1 2 8 6 1 0 3 11 6 -4 4 9 3 2 0 -1 6 12 8 4 7 7 5 8 10 8 6 7 8 8 9 8 6 6 6 8 12 8 1 5 17 20 16 17 8 -1 5 10 10 11 9 8 8 7 9 9 8 10 12 13 11 8 7 6 6 6 5 5 5 5 6 7 7 8 7 8 8 7 7 7 6 6 5
6 4 8 11 6 8 11 4 3 9 5 1 8 13 6 3 8 7 0 0 8 13 10 7 8 9 7 3 1 0 5 14 10 2 6 6 2 3 7 9 7 4 7 9 10 9 8 8 7 7 10 6 2 10 17 13 16 25 12 -4 3 10 10 11 10 9 9 8 9 9 8 10 12 13 12 9 7 6 5 5 5 5 5 6 7 7 7 7 7 7 7 7 7 7 7 7 7
5 6 7 11 10 7 9 7 4 10 9 0 6 12 6 2 6 9 11 15 17 11 13 17 9 5 8 4 -0 1 7 15 10 2 5 7 2 1 6 9 6 3 6 8 9 9 9 9 4 3 6 3 6 16 16 10 13 16 8 -0 5 9 10 12 10 8 9 9 9 9 8 10 12 13 12 9 7 6 6 6 6 6 7 8 8 8 7 8 8 8 7 7 7 7 8 7 7
6 8 6 9 14 7 5 14 12 12 13 4 5 10 4 1 7 13 17 22 21 14 15 18 11 9 10 2 -0 4 9 12 7 3 7 6 1 0 6 7 2 3 5 5 8 8 6 7 3 2 5 3 11 19 13 10 12 7 4 4 6 10 11 10 9 8 9 9 9 9 9 10 12 13 12 9 7 7 6 6 7 8 8 9 9 8 8 9 9 9 9 8 8 8 8 8 8
5 7 8 8 14 9 6 14 12 10 16 11 8 11 9 7 10 13 12 15 24 25 21 18 16 17 13 3 3 6 7 8 5 3 4 1 2 7 9 6 1 2 4 4 6 5 5 5 3 6 9 7 16 20 10 11 12 3 4 7 7 10 12 10 9 8 7 9 9 8 9 10 11 12 11 9 8 7 6 7 8 8 9 9 9 8 8 9 9 9 8 8 8 8 8 8 8
7 7 8 7 13 13 5 4 0 -4 1 7 8 12 16 14 11 15 18 18 24 25 21 20 21 19 11 2 3 4 5 7 4 2 0 -1 5 10 8 6 1 1 4 4 4 4 5 5 4 12 16 12 16 19 13 12 7 2 7 9 7 11 11 10 10 7 7 9 8 8 8 10 12 12 10 8 7 6 6 8 8 9 10 10 9 8 7 7 7 6 5 6 6 6 6 6 7
11 14 14 10 11 13 10 7 8 7 4 5 9 12 14 11 8 18 24 16 10 10 12 16 18 15 10 6 8 11 7 5 3 0 -1 3 7 6 6 7 3 2 5 3 4 5 3 5 5 11 19 17 12 13 12 9 6 7 9 8 9 12 11 10 10 8 8 8 9 9 8 10 12 11 9 7 6 6 7 8 8 8 9 9 8 7 6 5 5 5 4 4 5 5 6 6 7
10 14 17 17 12 12 13 8 9 16 13 8 10 12 8 4 7 17 22 16 5 1 5 10 12 13 10 9 10 11 7 4 2 0 3 7 4 0 6 8 3 5 5 2 5 4 3 7 4 9 24 21 8 8 11 10 9 9 8 8 11 12 9 11 10 8 8 9 10 9 8 11 12 10 9 7 6 6 7 8 8 8 8 9 8 6 6 5 5 5 5 6 7 8 8 8 9
10 6 10 17 14 13 17 13 6 6 11 10 7 8 12 13 13 15 18 15 3 -1 4 7 5 3 2 2 1 0 1 3 2 4 10 8 -1 -0 9 9 4 6 5 3 4 2 5 8 2 13 28 14 3 10 13 11 10 7 8 10 11 10 10 12 11 9 8 9 10 10 9 11 11 9 8 7 6 6 7 7 7 8 8 8 8 6 6 6 6 7 8 9 10 10 10 11 12
9 7 10 12 10 8 10 15 12 3 6 10 3 5 13 12 8 11 14 12 6 2 2 3 2 3 4 4 4 2 3 6 9 11 11 3 -3 3 11 7 5 6 4 4 2 2 8 5 7 28 25 -1 -0 14 12 11 9 5 9 11 10 11 11 12 11 9 8 9 11 11 10 11 11 9 7 6 6 5 6 7 7 7 7 7 7 6 6 7 9 10 9 9 9 10 12 13 13
9 10 10 11 15 11 5 8 10 4 4 6 4 6 9 7 7 12 13 11 8 5 2 2 5 7 5 4 6 9 9 9 10 7 3 -1 1 9 13 8 6 5 3 3 1 3 7 3 14 33 18 -6 3 12 11 13 8 4 9 11 11 12 11 12 11 8 8 10 12 12 11 11 10 9 8 6 5 5 6 7 7 7 7 7 7 7 8 9 9 9 7 7 10 12 15 15 13
14 13 10 11 14 11 7 6 8 10 8 2 2 5 7 12 14 10 8 9 10 10 8 7 7 9 10 11 11 14 14 11 8 5 3 5 9 12 12 7 4 3 2 3 2 4 7 4 13 22 9 -1 6 7 10 15 7 4 10 11 12 12 10 11 10 9 9 10 13 13 10 10 10 8 8 6 5 6 7 7 7 7 7 8 7 7 8 9 8 6 6 8 13 16 17 15 12
Height
5908 5908 5909 5909 5909 5909 5910 5911 5911 5910 5911 5911 5910 5910 5911 5911 5913 5914 5914 5915 5915 5915 5917 5918 5918 5919 5919 5919 5919 5918 5919 5919 5919 5920 5921 5921 5921 5922 5922 5922 5923 5923 5923 5923 5923 5923 5924 5924 5925 5925 5925 5925 5924 5924 5924 5924 5924 5923 5923 5923 5923 5923 5923 5924 5924 5924 5924 5925 5925 5923 5921 5922 5922 5921 5921 5921 5921 5921 5921 5921 5920 5920 5920 5921 5921 5921 5920 5920 5920 5920 5920 5920 5920 5920 5920 5920 5920
5910 5910 5910 5910 5910 5910 5911 5911 5911 5910 5911 5911 5910 5910 5911 5912 5913 5914 5915 5915 5916 5916 5917 5918 5919 5918 5919 5919 5919 5918 5918 5919 5919 5920 5921 5921 5921 5921 5922 5922 5922 5922 5922 5923 5923 5923 5923 5924 5924 5925 5925 5925 5924 5924 5924 5924 5924 5924 5923 5923 5923 5923 5923 5923 5923 5923 5923 5924 5923 5922 5921 5921 5922 5921 5921 5921 5920 5920 5920 5920 5920 5920 5920 5920 5921 5921 5920 5920 5920 5920 5920 5920 5920 5920 5920 5920 5920
5912 5911 5911 5911 5912 5912 5912 5912 5912 5912 5913 5913 5911 5911 5911 5912 5913 5914 5915 5916 5917 5917 5917 5918 5918 5918 5918 5919 5918 5918 5918 5919 5920 5920 5920 5920 5920 5921 5921 5921 5922 5922 5922 5922 5922 5922 5923 5923 5924 5924 5924 5924 5924 5924 5924 5924 5924 5924 5924 5923 5923 5923 5923 5923 5923 5922 5922 5922 5922 5921 5921 5921 5921 5921 5921 5920 5920 5919 5920 5920 5920 5920 5920 5920 5920 5920 5920 5920 5920 5919 5920 5920 5920 5920 5920 5920 5919
5914 5913 5913 5913 5914 5914 5914 5914 5913 5914 5915 5915 5914 5913 5913 5913 5914 5914 5916 5917 5917 5917 5918 5918 5918 5919 5919 5919 5918 5919 5919 5919 5920 5920 5920 5920 5920 5920 5921 5921 5921 5921 5921 5922 5922 5922 5923 5923 5923 5923 5923 5924 5924 5924 5924 5924 5924 5924 5924 5924 5923 5923 5923 5923 5922 5922 5922 5922 5922 5921 5921 5921 5921 5921 5920 5920 5919 5919 5919 5919 5920 5920 5920 5920 5920 5920 5920 5920 5919 5919 5919 5919 5919 5919 5919 5919 5919
5916 5915 5915 5915 5916 5915 5915 5915 5916 5916 5916 5916 5915 5915 5915 5915 5916 5916 5917 5918 5918 5918 5918 5918 5919 5919 5919 5919 5919 5919 5920 5920 5920 5920 5920 5920 5920 5920 5921 5921 5921 5921 5922 5922 5922 5922 5922 5923 5923 5922 5923 5923 5923 5923 5924 5924 5924 5924 5924 5924 5924 5923 5923 5923 5922 5922 5922 5922 5922 5922 5921 5921 5921 5920 5919 5919 5919 5918 5918 5919 5919 5919 5920 5920 5920 5919 5919 5919 5919 5918 5918 5918 5918 5917 5917 5917 5917
5918 5917 5917 5917 5918 5917 5917 5918 5918 5918 5917 5917 5917 5917 5917 5917 5918 5918 5918 5919 5919 5919 5919 5919 5919 5919 5919 5919 5920 5920 5920 5921 5921 5921 5921 5921 5921 5921 5921 5922 5922 5922 5922 5922 5922 5922 5922 5922 5922 5922 5922 5922 5923 5923 5923 5923 5924 5924 5924 5924 5924 5923 5923 5923 5923 5922 5922 5922 5922 5921 5921 5920 5920 5919 5918 5918 5917 5917 5917 5918 5918 5919 5919 5919 5919 5918 5918 5918 5918 5917 5917 5917 5916 5916 5916 5915 5915
5920 5919 5919 5919 5919 5919 5919 5920 5920 5920 5919 5919 5919 5919 5919 5919 5919 5919 5919 5919 5919 5919 5919 5920 5920 5920 5920 5920 5920 5921 5921 5921 5921 5921 5921 5921 5922 5922 5922 5922 5922 5922 5922 5922 5922 5922 5922 5922 5922 5922 5922 5922 5923 5923 5923 5923 5923 5924 5924 5923 5923 5923 5923 5923 5923 5923 5922 5922 5921 5921 5920 5919 5919 5918 5918 5917 5917 5917 5917 5917 5918 5918 5917 5917 5917 5917 5917 5917 5917 5916 5916 5916 5915 5915 5914 5914 5914
5923 5922 5920 5921 5921 5921 5922 5922 5921 5921 5921 5921 5921 5921 5921 5921 5920 5920 5920 5920 5920 5920 5920 5920 5921 5921 5921 5921 5921 5921 5921 5921 5921 5921 5921 5921 5922 5922 5922 5922 5922 5922 5921 5921 5921 5921 5921 5921 5921 5922 5922 5922 5922 5922 5922 5923 5923 5923 5923 5923 5923 5922 5922 5922 5922 5922 5921 5921 5920 5920 5919 5918 5918 5917 5917 5916 5916 5916 5916 5916 5916 5916 5916 5916 5916 5916 5916 5916 5916 5915 5915 5915 5914 5914 5913 5913 5912
5925 5924 5923 5923 5924 5924 5924 5924 5924 5923 5923 5922 5922 5923 5922 5922 5921 5921 5921 5921 5921 5921 5921 5921 5922 5922 5922 5922 5922 5922 5922 5921 5921 5921 5921 5921 5922 5922 5922 5922 5921 5921 5921 5921 5920 5920 5920 5921 5921 5921 5921 5921 5921 5921 5922 5922 5922 5922 5922 5922 5921 5921 5921 5921 5921 5920 5920 5920 5919 5919 5918 5917 5917 5916 5915 5915 5915 5915 5915 5915 5914 5915 5915 5914 5915 5915 5915 5915 5914 5914 5913 5913 5913 5912 5912 5912 5911
5926 5926 5926 5927 5927 5927 5926 5926 5926 5925 5924 5924 5924 5924 5924 5923 5923 5923 5923 5923 5923 5923 5923 5923 5923 5923 5923 5923 5923 5922 5922 5922 5922 5922 5922 5922 5922 5923 5923 5922 5922 5921 5921 5921 5921 5920 5920 5920 5921 5921 5920 5920 5920 5920 5921 5921 5921 5921 5921 5921 5920 5920 5920 5920 5920 5919 5919 5918 5918 5917 5917 5916 5915 5915 5914 5914 5914 5914 5914 5913 5913 5913 5913 5913 5914 5914 5914 5913 5913 5912 5912 5912 5911 5911 5911 5910 5910
5928 5928 5928 5929 5929 5929 5929 5928 5928 5927 5927 5926 5926 5925 5925 5925 5925 5925 5925 5925 5924 5924 5924 5924 5924 5924 5924 5924 5924 5923 5923 5923 5922 5922 5922 5923 5923 5923 5923 5922 5922 5921 5921 5921 5921 5921 5920 5920 5920 5920 5919 5919 5919 5919 5919 5920 5920 5920 5920 5920 5919 5919 5919 5919 5919 5919 5918 5917 5916 5916 5915 5915 5915 5914 5914 5914 5914 5913 5913 5912 5912 5912 5912 5913 5913 5913 5913 5912 5912 5911 5911 5910 5910 5910 5909 5909 5909
5931 5930 5931 5932 5932 5931 5931 5930 5930 5929 5929 5928 5928 5927 5927 5927 5927 5927 5927 5926 5926 5925 5925 5925 5925 5925 5925 5925 5925 5924 5924 5923 5923 5923 5923 5923 5923 5923 5923 5922 5922 5921 5921 5921 5921 5921 5920 5919 5919 5918 5919 5919 5919 5919 5919 5920 5920 5920 5920 5919 5919 5919 5919 5919 5918 5918 5917 5916 5915 5915 5914 5914 5914 5914 5914 5913 5913 5912 5912 5912 5911 5911 5911 5911 5911 5911 5911 5911 5911 5910 5910 5909 5909 5908 5908 5908 5907
5933 5933 5934 5935 5934 5933 5933 5933 5932 5931 5931 5931 5930 5930 5929 5929 5929 5929 5929 5928 5928 5927 5927 5927 5927 5927 5927 5927 5926 5925 5925 5924 5924 5924 5924 5924 5924 5924 5923 5923 5923 5922 5921 5922 5921 5921 5920 5919 5918 5918 5918 5918 5918 5919 5920 5920 5920 5920 5919 5918 5918 5917 5917 5917 5917 5917 5916 5915 5915 5914 5914 5913 5913 5913 5913 5912 5911 5910 5911 5911 5910 5910 5909 5909 5910 5910 5909 5909 5909 5909 5908 5908 5907 5907 5906 5906 5906
5936 5936 5937 5937 5936 5935 5935 5934 5934 5934 5933 5933 5933 5932 5932 5931 5931 5931 5931 5930 5930 5929 5929 5929 5928 5928 5928 5928 5928 5927 5926 5926 5925 5925 5925 5925 5925 5924 5924 5924 5923 5923 5922 5922 5921 5921 5920 5919 5919 5918 5918 5918 5918 5919 5919 5919 5919 5919 5918 5917 5917 5917 5917 5917 5916 5915 5915 5914 5914 5914 5913 5912 5912 5912 5912 5911 5910 5909 5910 5909 5909 5908 5908 5908 5908 5908 5908 5907 5907 5907 5907 5906 5906 5905 5905 5904 5904
5938 5939 5939 5938 5937 5936 5936 5936 5936 5936 5936 5936 5936 5935 5934 5934 5933 5933 5932 5932 5932 5931 5930 5930 5930 5929 5929 5929 5929 5929 5928 5927 5926 5926 5926 5925 5925 5925 5925 5924 5924 5923 5923 5922 5922 5921 5920 5920 5919 5919 5919 5918 5919 5919 5919 5919 5919 5918 5917 5917 5916 5916 5916 5916 5915 5914 5914 5913 5913 5913 5912 5912 5911 5911 5911 5910 5909 5909 5909 5908 5908 5908 5907 5907 5907 5907 5906 5906 5906 5906 5906 5905 5904 5904 5904 5903 5903
5940 5940 5939 5939 5939 5938 5938 5938 5937 5937 5938 5938 5938 5937 5937 5936 5935 5935 5934 5934 5933 5933 5932 5932 5931 5930 5930 5930 5930 5930 5929 5928 5927 5927 5927 5926 5926 5926 5925 5925 5924 5924 5924 5923 5922 5922 5921 5920 5920 5919 5919 5919 5919 5919 5919 5919 5918 5918 5917 5916 5916 5916 5916 5915 5914 5913 5913 5913 5913 5912 5912 5911 5911 5910 5910 5909 5909 5908 5908 5907 5907 5907 5907 5906 5906 5906 5905 5905 5905 5905 5905 5904 5903 5903 5902 5902 5901
5941 5941 5940 5941 5941 5940 5940 5940 5939 5939 5939 5940 5939 5939 5939 5938 5937 5936 5936 5935 5935 5935 5934 5934 5933 5932 5932 5931 5931 5931 5930 5929 5928 5928 5927 5927 5927 5926 5926 5925 5925 5925 5924 5923 5923 5922 5922 5921 5920 5919 5919 5919 5919 5919 5919 5918 5918 5918 5917 5916 5916 5916 5915 5914 5913 5912 5912 5912 5912 5911 5911 5911 5910 5910 5909 5909 5908 5907 5907 5906 5906 5906 5906 5906 5905 5905 5905 5904 5904 5904 5904 5903 5902 5901 5901 5900 5900
5944 5942 5942 5943 5943 5942 5942 5942 5941 5941 5941 5941 5941 5940 5940 5939 5939 5938 5937 5936 5936 5936 5936 5936 5935 5933 5933 5932 5931 5931 5931 5930 5929 5929 5928 5928 5927 5927 5926 5926 5925 5925 5925 5924 5923 5923 5922 5921 5920 5919 5919 5919 5919 5919 5919 5918 5917 5917 5916 5916 5916 5915 5914 5914 5913 5912 5912 5912 5911 5911 5911 5910 5910 5910 5909 5909 5908 5907 5906 5906 5906 5906 5906 5905 5904 5904 5904 5903 5903 5902 5902 5902 5901 5900 5900 5899 5898
5946 5945 5945 5945 5944 5944 5944 5944 5944 5944 5943 5942 5942 5942 5941 5941 5940 5940 5939 5938 5937 5937 5937 5937 5936 5935 5934 5934 5932 5932 5932 5931 5930 5929 5929 5928 5928 5927 5927 5926 5926 5926 5925 5924 5923 5923 5922 5921 5920 5919 5919 5919 5919 5919 5918 5917 5917 5916 5916 5915 5915 5915 5914 5913 5912 5912 5912 5912 5911 5911 5910 5910 5910 5909 5909 5908 5908 5907 5906 5905 5905 5905 5905 5904 5904 5903 5903 5902 5901 5901 5901 5901 5900 5899 5898 5898 5897
5948 5947 5947 5947 5946 5946 5946 5945 5945 5945 5944 5943 5943 5943 5942 5942 5942 5941 5940 5939 5939 5938 5938 5938 5937 5936 5936 5935 5934 5933 5932 5932 5931 5930 5929 5929 5929 5928 5927 5927 5927 5926 5925 5924 5923 5923 5922 5921 5920 5919 5919 5919 5919 5919 5918 5917 5916 5916 5915 5915 5915 5914 5914 5913 5912 5912 5912 5911 5911 5910 5910 5910 5909 5909 5908 5908 5907 5906 5905 5905 5904 5904 5904 5903 5903 5902 5901 5901 5901 5900 5900 5900 5899 5898 5897 5897 5896
5950 5949 5949 5948 5948 5947 5947 5947 5946 5946 5945 5945 5944 5944 5944 5943 5942 5942 5941 5941 5940 5940 5939 5938 5938 5937 5937 5936 5935 5934 5933 5932 5931 5930 5930 5930 5929 5929 5928 5928 5927 5926 5925 5924 5923 5923 5922 5921 5920 5919 5919 5919 5919 5918 5917 5917 5916 5915 5915 5914 5914 5914 5913 5912 5912 5911 5911 5911 5910 5910 5909 5909 5908 5908 5907 5907 5906 5905 5904 5904 5903 5903 5902 5902 5901 5901 5900 5900 5900 5899 5899 5899 5898 5897 5896 5895 5894
5951 5950 5950 5950 5949 5948 5948 5948 5947 5947 5947 5946 5945 5945 5944 5944 5943 5943 5942 5942 5941 5941 5940 5939 5938 5938 5937 5937 5935 5934 5933 5932 5932 5931 5930 5930 5930 5930 5929 5928 5927 5926 5925 5924 5923 5923 5922 5921 5920 5919 5919 5919 5919 5918 5917 5917 5916 5915 5914 5914 5914 5914 5913 5912 5911 5911 5910 5910 5910 5909 5909 5908 5908 5907 5906 5905 5904 5904 5903 5902 5902 5901 5901 5901 5900 5900 5900 5899 5899 5898 5898 5897 5896 5896 5895 5894 5893
5952 5951 5952 5951 5951 5950 5949 5949 5949 5948 5948 5947 5946 5946 5945 5944 5944 5943 5943 5942 5942 5941 5940 5940 5939 5938 5938 5937 5936 5934 5934 5933 5932 5931 5931 5931 5931 5930 5930 5928 5927 5926 5925 5924 5924 5923 5922 5920 5920 5919 5919 5918 5918 5918 5917 5916 5915 5915 5914 5913 5913 5913 5913 5912 5911 5910 5910 5909 5909 5908 5908 5907 5907 5906 5905 5904 5903 5902 5902 5901 5901 5900 5900 5900 5900 5899 5898 5898 5898 5897 5896 5895 5895 5894 5893 5893 5892
5952 5952 5953 5952 5952 5951 5951 5951 5950 5950 5949 5948 5947 5946 5946 5945 5944 5944 5943 5943 5942 5942 5941 5941 5940 5939 5938 5937 5936 5935 5934 5933 5932 5931 5931 5931 5931 5931 5930 5929 5927 5926 5925 5925 5924 5924 5922 5920 5920 5919 5919 5918 5918 5917 5917 5916 5915 5915 5914 5913 5913 5913 5912 5912 5911 5910 5909 5908 5908 5907 5907 5906 5905 5904 5903 5902 5902 5901 5900 5900 5899 5899 5899 5898 5898 5897 5897 5896 5896 5895 5894 5893 5893 5892 5892 5891 5890
5954 5953 5953 5953 5953 5953 5952 5952 5951 5951 5950 5949 5948 5948 5947 5946 5945 5944 5943 5943 5943 5942 5942 5941 5940 5940 5939 5938 5937 5935 5934 5933 5932 5931 5931 5930 5930 5930 5930 5929 5928 5926 5925 5925 5925 5924 5922 5920 5920 5919 5919 5918 5917 5917 5916 5916 5915 5914 5914 5913 5912 5912 5912 5911 5910 5909 5908 5907 5906 5906 5905 5905 5904 5903 5902 5901 5900 5899 5899 5898 5898 5898 5897 5897 5896 5896 5895 5895 5894 5893 5892 5891 5891 5890 5890 5889 5889
5955 5954 5954 5954 5953 5953 5953 5952 5952 5952 5951 5950 5950 5949 5948 5947 5946 5945 5944 5943 5943 5943 5942 5942 5941 5940 5939 5938 5937 5936 5935 5934 5933 5932 5931 5930 5930 5930 5930 5929 5928 5926 5925 5925 5924 5924 5922 5920 5919 5919 5919 5918 5917 5917 5917 5916 5915 5914 5913 5912 5911 5911 5911 5910 5909 5908 5907 5907 5906 5905 5904 5903 5902 5902 5901 5900 5899 5898 5898 5897 5897 5896 5896 5895 5894 5894 5893 5893 5892 5891 5890 5890 5889 5888 5888 5887 5887
5956 5956 5955 5954 5954 5954 5954 5953 5953 5952 5952 5951 5951 5950 5949 5948 5946 5945 5945 5944 5943 5943 5943 5942 5941 5940 5939 5938 5937 5936 5935 5934 5933 5932 5930 5930 5929 5929 5929 5929 5928 5926 5924 5924 5924 5924 5922 5920 5919 5919 5919 5918 5917 5916 5916 5915 5913 5912 5911 5911 5911 5910 5910 5909 5908 5907 5907 5906 5905 5904 5903 5902 5901 5900 5899 5899 5898 5898 5897 5896 5896 5895 5894 5893 5892 5892 5891 5891 5890 5889 5889 5888 5888 5887 5886 5886 5885
5957 5957 5956 5955 5955 5954 5954 5954 5953 5953 5952 5952 5951 5950 5949 5948 5947 5946 5946 5945 5944 5943 5943 5942 5941 5940 5939 5938 5937 5936 5935 5934 5932 5931 5930 5929 5929 5929 5929 5929 5928 5926 5924 5922 5923 5925 5923 5920 5918 5918 5917 5917 5916 5915 5914 5913 5912 5911 5910 5910 5910 5909 5908 5907 5907 5906 5905 5905 5904 5903 5902 5901 5900 5899 5899 5898 5898 5897 5896 5895 5894 5893 5892 5891 5891 5890 5890 5889 5888 5888 5887 5887 5886 5886 5885 5884 5883
5958 5957 5957 5956 5955 5955 5955 5954 5954 5953 5952 5952 5951 5951 5950 5949 5948 5947 5946 5946 5945 5944 5943 5942 5941 5940 5939 5938 5937 5936 5934 5933 5932 5932 5931 5930 5929 5929 5929 5928 5928 5926 5923 5920 5921 5923 5923 5921 5918 5917 5916 5915 5914 5913 5912 5911 5910 5910 5909 5909 5908 5907 5907 5906 5905 5904 5904 5903 5902 5901 5901 5900 5899 5899 5898 5897 5897 5896 5895 5894 5893 5892 5891 5890 5890 5889 5888 5888 5887 5887 5886 5886 5885 5884 5884 5883 5882
5957 5957 5957 5957 5956 5956 5955 5954 5954 5953 5953 5952 5951 5951 5950 5949 5948 5948 5947 5946 5946 5945 5943 5942 5941 5940 5939 5938 5937 5936 5934 5933 5933 5932 5931 5930 5930 5929 5928 5928 5927 5926 5924 5921 5919 5919 5919 5919 5918 5916 5915 5914 5913 5912 5910 5910 5909 5909 5908 5907 5907 5906 5905 5905 5904 5903 5902 5901 5901 5900 5900 5899 5899 5898 5897 5897 5896 5895 5894 5893 5892 5891 5890 5889 5888 5888 5887 5886 5886 5885 5885 5884 5884 5883 5882 5882 5881
5957 5957 5957 5957 5957 5957 5956 5955 5955 5954 5953 5952 5951 5950 5950 5949 5948 5948 5947 5947 5946 5945 5944 5942 5941 5940 5939 5938 5937 5936 5935 5934 5933 5932 5932 5930 5930 5929 5928 5927 5926 5926 5924 5922 5919 5918 5917 5916 5916 5915 5914 5914 5912 5911 5910 5909 5909 5908 5907 5906 5906 5905 5905 5904 5903 5902 5901 5901 5900 5899 5899 5898 5898 5897 5896 5896 5894 5893 5892 5891 5891 5890 5889 5888 5887 5886 5886 5885 5884 5884 5883 5883 5882 5881 5881 5880 5879
5957 5957 5957 5957 5957 5957 5956 5955 5955 5955 5954 5953 5951 5950 5950 5949 5948 5948 5948 5947 5946 5946 5944 5943 5941 5940 5939 5938 5937 5936 5935 5934 5933 5932 5931 5930 5929 5928 5927 5927 5926 5925 5924 5922 5920 5918 5917 5916 5915 5915 5914 5913 5912 5911 5910 5909 5909 5908 5907 5906 5905 5905 5904 5903 5902 5902 5901 5900 5899 5899 5898 5897 5897 5896 5895 5894 5893 5892 5891 5890 5889 5889 5888 5887 5886 5885 5884 5883 5883 5882 5882 5881 5881 5880 5879 5878 5877
5957 5957 5958 5958 5957 5956 5955 5955 5955 5955 5954 5953 5952 5950 5950 5950 5949 5948 5948 5947 5947 5946 5945 5943 5942 5940 5939 5938 5937 5936 5935 5934 5934 5933 5931 5930 5929 5928 5927 5926 5926 5925 5923 5922 5920 5918 5917 5917 5916 5915 5915 5913 5912 5911 5910 5909 5909 5908 5907 5906 5905 5904 5903 5903 5902 5901 5900 5900 5899 5898 5897 5896 5896 5895 5894 5893 5891 5890 5890 5889 5888 5887 5887 5886 5885 5884 5883 5882 5882 5881 5881 5880 5880 5879 5878 5877 5876
5958 5958 5958 5957 5957 5956 5955 5954 5954 5954 5954 5953 5953 5951 5950 5950 5949 5949 5948 5947 5947 5946 5945 5944 5942 5941 5939 5938 5937 5936 5935 5934 5934 5933 5931 5930 5929 5928 5927 5926 5925 5924 5922 5921 5919 5918 5917 5917 5917 5916 5915 5913 5912 5911 5910 5909 5908 5907 5907 5906 5905 5904 5903 5902 5901 5900 5900 5899 5898 5897 5896 5896 5895 5894 5892 5891 5890 5889 5888 5887 5887 5886 5885 5884 5884 5883 5882 5882 5881 5881 5880 5879 5878 5877 5876 5875 5874
5957 5957 5957 5957 5956 5956 5955 5954 5954 5954 5954 5953 5953 5952 5951 5950 5949 5949 5948 5947 5947 5946 5946 5944 5943 5941 5939 5938 5937 5936 5935 5934 5934 5933 5931 5930 5929 5928 5927 5926 5925 5923 5921 5919 5919 5919 5918 5918 5918 5916 5914 5913 5912 5911 5910 5909 5908 5907 5906 5905 5904 5903 5902 5901 5900 5900 5899 5898 5897 5896 5895 5894 5893 5892 5891 5889 5888 5887 5887 5886 5885 5885 5884 5883 5883 5882 5881 5881 5880 5880 5879 5878 5877 5876 5875 5874 5873
5955 5955 5955 5956 5956 5955 5955 5954 5953 5953 5954 5953 5953 5952 5952 5950 5948 5948 5948 5948 5947 5946 5946 5945 5943 5942 5940 5938 5937 5936 5935 5935 5934 5933 5931 5930 5929 5928 5927 5926 5924 5922 5920 5917 5918 5920 5919 5918 5918 5916 5915 5914 5912 5910 5909 5908 5907 5906 5905 5904 5903 5902 5901 5901 5900 5899 5898 5897 5896 5895 5894 5893 5892 5890 5889 5888 5887 5886 5886 5885 5884 5884 5883 5883 5882 5882 5881 5880 5879 5879 5878 5877 5876 5875 5874 5873 5871
5954 5954 5954 5954 5954 5955 5954 5952 5952 5953 5953 5952 5952 5952 5952 5950 5948 5948 5948 5948 5947 5946 5945 5945 5943 5942 5940 5939 5938 5937 5936 5935 5934 5933 5931 5930 5929 5928 5927 5926 5924 5922 5921 5919 5919 5921 5920 5919 5917 5915 5914 5913 5912 5910 5908 5907 5906 5905 5904 5903 5902 5902 5901 5900 5899 5898 5897 5896 5895 5894 5893 5892 5890 5889 5888 5887 5886 5885 5885 5884 5884 5883 5882 5882 5881 5881 5880 5879 5878 5878 5877 5876 5874 5873 5873 5871 5870
5953 5953 5953 5953 5954 5954 5953 5951 5951 5952 5952 5951 5951 5951 5951 5950 5949 5949 5948 5948 5947 5946 5945 5944 5943 5942 5940 5939 5938 5937 5936 5935 5933 5932 5931 5930 5928 5927 5926 5925 5924 5923 5922 5921 5922 5922 5921 5918 5915 5913 5913 5912 5911 5909 5908 5907 5906 5905 5904 5903 5902 5902 5900 5899 5898 5896 5895 5895 5894 5893 5892 5890 5889 5888 5887 5886 5885 5884 5884 5883 5883 5882 5882 5881 5880 5880 5879 5878 5877 5876 5876 5875 5874 5872 5871 5870 5869
5951 5951 5951 5952 5952 5952 5952 5950 5950 5950 5951 5951 5950 5950 5950 5950 5949 5948 5948 5947 5946 5945 5945 5944 5943 5942 5940 5939 5938 5937 5936 5935 5933 5931 5930 5929 5928 5926 5925 5925 5925 5924 5924 5923 5923 5923 5920 5917 5915 5914 5913 5912 5910 5908 5907 5907 5905 5904 5903 5902 5902 5901 5900 5898 5897 5895 5894 5893 5892 5891 5890 5889 5888 5887 5886 5885 5884 5883 5883 5882 5882 5881 5881 5880 5879 5879 5878 5877 5876 5875 5874 5873 5873 5871 5870 5868 5867
5950 5950 5950 5950 5951 5951 5951 5949 5948 5949 5949 5949 5948 5947 5948 5948 5946 5946 5946 5947 5946 5945 5944 5943 5943 5941 5940 5939 5938 5937 5936 5935 5933 5931 5929 5928 5926 5925 5925 5925 5925 5925 5925 5924 5923 5921 5919 5917 5915 5915 5914 5912 5910 5908 5907 5906 5905 5903 5901 5900 5900 5899 5898 5897 5896 5894 5893 5892 5891 5890 5889 5888 5887 5886 5885 5884 5883 5882 5882 5881 5881 5880 5880 5879 5878 5877 5877 5876 5875 5873 5872 5871 5871 5870 5869 5867 5866
5948 5948 5949 5949 5949 5949 5949 5947 5946 5947 5947 5947 5946 5945 5946 5945 5944 5944 5945 5946 5945 5945 5944 5943 5942 5941 5939 5938 5937 5937 5936 5934 5933 5931 5929 5928 5926 5924 5924 5925 5925 5926 5926 5924 5922 5919 5918 5916 5915 5914 5913 5911 5909 5907 5905 5905 5904 5902 5900 5899 5898 5897 5896 5896 5895 5893 5892 5890 5889 5888 5887 5887 5885 5884 5883 5883 5882 5881 5881 5880 5880 5879 5878 5878 5877 5876 5875 5874 5873 5872 5871 5870 5869 5868 5867 5866 5865
5947 5947 5947 5947 5947 5947 5947 5946 5945 5946 5945 5945 5945 5944 5943 5943 5943 5943 5944 5945 5945 5944 5943 5942 5941 5940 5939 5938 5937 5936 5935 5934 5932 5931 5929 5927 5925 5924 5924 5925 5926 5926 5926 5923 5919 5917 5916 5915 5914 5913 5911 5909 5907 5906 5904 5903 5903 5901 5900 5899 5898 5896 5894 5894 5893 5892 5890 5889 5888 5887 5886 5885 5884 5883 5882 5881 5881 5880 5880 5879 5878 5878 5877 5877 5876 5875 5874 5873 5872 5871 5870 5868 5867 5866 5865 5864 5863
5945 5945 5945 5945 5945 5945 5945 5945 5944 5945 5944 5943 5943 5942 5941 5941 5941 5941 5942 5943 5943 5943 5942 5942 5941 5940 5938 5937 5936 5935 5934 5933 5931 5930 5928 5927 5925 5924 5924 5925 5926 5926 5924 5922 5918 5915 5915 5914 5913 5912 5911 5909 5907 5905 5904 5903 5902 5901 5899 5898 5897 5895 5893 5892 5892 5891 5889 5888 5887 5886 5885 5884 5883 5882 5881 5880 5879 5879 5878 5878 5877 5877 5876 5875 5875 5874 5873 5871 5870 5869 5868 5867 5866 5864 5863 5862 5861
5943 5943 5943 5943 5943 5943 5943 5943 5943 5943 5942 5941 5941 5940 5939 5940 5939 5938 5940 5941 5942 5942 5941 5940 5939 5938 5937 5936 5935 5934 5933 5932 5931 5929 5928 5926 5924 5924 5924 5925 5925 5924 5922 5920 5917 5915 5914 5913 5912 5911 5910 5908 5906 5905 5903 5902 5901 5900 5898 5897 5895 5894 5892 5891 5891 5890 5888 5887 5885 5884 5883 5882 5881 5880 5879 5879 5878 5878 5877 5877 5876 5875 5875 5874 5873 5872 5871 5870 5868 5867 5866 5865 5864 5862 5861 5860 5859
5941 5940 5940 5941 5940 5940 5941 5941 5942 5941 5940 5940 5940 5939 5938 5938 5937 5937 5937 5938 5938 5939 5938 5937 5937 5937 5936 5936 5935 5934 5933 5931 5930 5928 5927 5925 5924 5924 5924 5924 5924 5922 5920 5919 5917 5915 5913 5912 5911 5910 5909 5908 5906 5904 5903 5901 5900 5899 5897 5896 5894 5893 5892 5890 5889 5888 5886 5885 5883 5882 5881 5880 5879 5879 5878 5877 5877 5877 5876 5875 5875 5874 5873 5872 5871 5870 5869 5868 5866 5865 5864 5863 5862 5861 5859 5858 5857
5938 5938 5938 5938 5938 5938 5939 5939 5940 5939 5937 5938 5940 5938 5936 5937 5937 5936 5936 5935 5935 5935 5935 5935 5936 5936 5935 5935 5934 5933 5932 5930 5929 5927 5926 5925 5924 5924 5924 5924 5923 5921 5918 5918 5917 5914 5912 5911 5910 5909 5908 5907 5905 5903 5901 5900 5899 5898 5896 5894 5893 5892 5890 5889 5888 5886 5885 5883 5882 5881 5880 5879 5878 5877 5876 5876 5876 5876 5875 5874 5873 5872 5872 5871 5870 5868 5867 5866 5864 5863 5862 5860 5859 5858 5857 5856 5855
5936 5936 5936 5937 5936 5936 5937 5937 5938 5937 5935 5936 5938 5937 5935 5934 5935 5935 5935 5935 5935 5933 5932 5932 5933 5934 5934 5934 5933 5932 5931 5929 5928 5927 5925 5924 5923 5924 5924 5923 5922 5919 5918 5918 5917 5914 5912 5911 5909 5908 5907 5905 5903 5901 5900 5898 5897 5896 5895 5894 5892 5891 5889 5887 5886 5884 5883 5882 5880 5879 5878 5877 5876 5875 5875 5875 5875 5874 5873 5873 5872 5871 5870 5869 5868 5867 5865 5864 5862 5861 5860 5858 5857 5856 5855 5854 5853
5933 5934 5935 5935 5934 5935 5935 5935 5935 5934 5934 5935 5935 5935 5934 5933 5932 5933 5933 5932 5932 5931 5929 5929 5931 5932 5932 5932 5931 5931 5930 5928 5927 5926 5924 5923 5922 5923 5923 5922 5920 5918 5917 5917 5916 5914 5911 5910 5908 5907 5905 5903 5901 5899 5898 5897 5895 5893 5893 5893 5891 5889 5887 5885 5884 5883 5881 5880 5879 5878 5877 5876 5875 5874 5874 5874 5873 5873 5872 5871 5870 5869 5868 5867 5866 5864 5863 5862 5860 5859 5857 5856 5855 5854 5853 5851 5850
5931 5933 5933 5933 5933 5933 5934 5934 5933 5933 5933 5933 5933 5933 5932 5931 5931 5931 5930 5929 5929 5929 5929 5929 5929 5929 5930 5930 5929 5929 5928 5927 5926 5925 5923 5922 5921 5922 5921 5920 5919 5917 5916 5916 5914 5913 5910 5908 5907 5905 5903 5901 5899 5898 5896 5895 5893 5892 5892 5891 5889 5887 5885 5883 5882 5881 5880 5879 5878 5877 5876 5875 5874 5873 5873 5872 5872 5871 5871 5870 5868 5867 5866 5865 5864 5863 5861 5860 5858 5857 5855 5854 5853 5852 5850 5849 5848
5929 5930 5931 5931 5932 5932 5932 5933 5932 5933 5933 5931 5930 5931 5930 5930 5929 5928 5927 5927 5926 5926 5927 5927 5927 5927 5928 5928 5928 5928 5927 5926 5925 5924 5923 5921 5921 5920 5919 5918 5917 5916 5915 5914 5913 5911 5909 5907 5905 5904 5902 5900 5898 5896 5894 5892 5892 5891 5890 5889 5887 5885 5883 5882 5881 5880 5878 5877 5876 5875 5874 5873 5873 5872 5872 5871 5871 5870 5869 5868 5867 5866 5865 5863 5862 5861 5859 5858 5856 5855 5853 5852 5851 5850 5848 5847 5846
5926 5928 5928 5929 5930 5931 5932 5933 5933 5934 5933 5929 5928 5929 5929 5928 5928 5926 5925 5925 5924 5924 5924 5924 5924 5925 5926 5926 5926 5926 5926 5925 5924 5923 5921 5920 5920 5919 5918 5916 5915 5914 5913 5912 5911 5910 5908 5906 5904 5903 5901 5898 5896 5894 5893 5892 5891 5890 5889 5887 5886 5884 5882 5881 5879 5878 5877 5876 5875 5874 5873 5872 5871 5871 5870 5870 5869 5868 5867 5866 5865 5864 5863 5862 5860 5859 5857 5856 5855 5853 5852 5850 5849 5848 5846 5845 5843
5923 5925 5926 5927 5928 5928 5929 5930 5931 5931 5931 5929 5927 5927 5927 5927 5926 5925 5925 5924 5923 5922 5922 5922 5922 5923 5924 5925 5925 5925 5924 5923 5922 5922 5920 5919 5919 5918 5916 5914 5913 5912 5911 5910 5909 5908 5906 5904 5903 5901 5899 5896 5894 5893 5892 5891 5890 5888 5887 5886 5885 5883 5881 5880 5878 5877 5876 5874 5873 5872 5872 5871 5870 5869 5869 5868 5867 5866 5865 5864 5863 5862 5861 5860 5858 5857 5856 5854 5853 5852 5850 5849 5847 5846 5844 5843 5841
5921 5922 5924 5925 5926 5926 5926 5928 5928 5928 5929 5928 5927 5927 5927 5927 5926 5924 5923 5923 5922 5922 5921 5921 5921 5922 5923 5923 5923 5923 5923 5922 5921 5920 5919 5918 5917 5916 5915 5913 5912 5911 5910 5908 5907 5906 5904 5902 5901 5899 5897 5895 5893 5891 5890 5888 5887 5887 5886 5885 5884 5882 5881 5879 5877 5876 5874 5873 5872 5871 5870 5869 5868 5868 5867 5866 5865 5864 5863 5862 5861 5860 5859 5858 5856 5855 5854 5853 5851 5850 5849 5847 5846 5844 5842 5841 5839
5920 5921 5922 5923 5924 5924 5924 5926 5926 5926 5928 5928 5927 5926 5927 5927 5926 5924 5922 5922 5922 5921 5921 5921 5921 5921 5922 5922 5922 5922 5921 5921 5920 5919 5918 5917 5916 5915 5914 5912 5911 5910 5908 5906 5905 5903 5902 5900 5899 5897 5895 5894 5892 5891 5889 5887 5887 5886 5885 5883 5882 5881 5879 5878 5876 5874 5873 5872 5870 5869 5869 5868 5867 5866 5865 5864 5863 5862 5861 5860 5859 5858 5857 5856 5854 5853 5852 5851 5849 5848 5846 5845 5843 5842 5840 5838 5837
5918 5919 5920 5921 5922 5922 5923 5924 5925 5927 5928 5928 5927 5925 5925 5925 5924 5923 5922 5921 5921 5921 5920 5920 5921 5921 5921 5921 5921 5920 5920 5919 5918 5918 5916 5915 5914 5914 5913 5910 5909 5908 5906 5904 5903 5901 5900 5899 5897 5896 5894 5893 5891 5890 5889 5887 5886 5885 5883 5881 5879 5878 5877 5876 5874 5873 5871 5870 5869 5868 5867 5866 5865 5864 5863 5862 5861 5860 5860 5859 5857 5856 5855 5854 5852 5851 5850 5849 5847 5846 5844 5842 5841 5839 5837 5835 5834
5916 5917 5918 5919 5920 5921 5922 5923 5924 5926 5927 5927 5926 5925 5925 5923 5921 5921 5921 5920 5920 5920 5920 5920 5920 5920 5920 5920 5919 5919 5918 5917 5917 5916 5914 5913 5913 5913 5911 5909 5907 5906 5904 5902 5901 5899 5898 5897 5896 5894 5893 5891 5890 5889 5887 5886 5884 5882 5880 5878 5877 5876 5875 5874 5872 5871 5869 5868 5867 5866 5865 5864 5863 5862 5861 5860 5860 5859 5858 5857 5856 5854 5853 5852 5850 5849 5848 5846 5845 5843 5841 5840 5838 5836 5834 5833 5831
5914 5916 5917 5918 5919 5920 5921 5922 5923 5924 5925 5926 5925 5924 5924 5921 5920 5920 5920 5919 5919 5919 5919 5919 5919 5919 5918 5918 5918 5917 5916 5915 5914 5913 5912 5911 5911 5911 5908 5906 5905 5904 5902 5900 5899 5897 5896 5895 5894 5893 5891 5890 5888 5886 5885 5883 5881 5879 5878 5877 5876 5874 5873 5872 5870 5868 5867 5866 5866 5865 5864 5862 5861 5860 5859 5859 5858 5857 5856 5855 5854 5853 5851 5850 5848 5847 5846 5844 5842 5841 5839 5837 5835 5833 5831 5830 5828
5913 5915 5916 5917 5918 5919 5920 5921 5922 5922 5923 5923 5922 5922 5921 5919 5918 5919 5919 5918 5918 5917 5917 5917 5917 5917 5917 5916 5915 5914 5913 5913 5912 5911 5909 5909 5908 5908 5905 5903 5902 5901 5899 5898 5897 5895 5894 5893 5892 5891 5890 5888 5886 5884 5882 5880 5879 5878 5876 5875 5874 5872 5871 5869 5868 5866 5865 5865 5864 5863 5862 5860 5859 5858 5858 5857 5856 5855 5854 5853 5852 5851 5849 5848 5846 5845 5844 5842 5840 5838 5837 5834 5832 5830 5829 5827 5826